Lamar, CO

1:29 AM MST on December 16, 2019 (GMT -0700)
Lamar Municipal

Weather History for KLAA - October, 2019

Change the Weather History Date:

Sunday, October 6, 2019

  Actual Average Record
Temperature  
Mean Temperature 50 °F 57 °F  
Max Temperature 68 °F 75 °F 95 °F (1921)
Min Temperature 32 °F 40 °F 24 °F (1932)
Degree Days  
Heating Degree Days 15 8  
Month to date heating degree days 44 44  
Since 1 July heating degree days 50 127  
Cooling Degree Days 0 1  
Month to date cooling degree days 1 6  
Year to date cooling degree days 1406 1118  
Moisture  
Dew Point 32 °F    
Average Humidity 54    
Maximum Humidity 82    
Minimum Humidity 26    
Precipitation  
Precipitation 0.00 in 0.02 in 1.26 in (1954)
Month to date precipitation 0.01 0.16  
Year to date precipitation 7.76 13.78  
Sea Level Pressure  
Sea Level Pressure 30.20 in    
Wind  
Wind Speed 8 mph (East)    
Max Wind Speed 21 mph    
Max Gust Speed 28 mph    
Visibility 10 miles    
Events      
T = Trace of Precipitation, MM = Missing Value Source: NWS Daily Summary

Daily Weather History Graph

Daily Weather History Graph

Search for Another Location

Airport or City:

Astronomy

Oct. 06, 2019 Rise Set
Actual Time 6:50 AM MDT 6:26 PM MDT
Civil Twilight 6:24 AM MDT 6:52 PM MDT
Nautical Twilight 5:53 AM MDT 7:23 PM MDT
Astronomical Twilight 5:23 AM MDT 7:53 PM MDT
Moon 3:00 PM MDT (10/6) No Moon Set
Length of Visible Light 12h 28m
Length of Day
11h 35m
First Quarter, 60% of the Moon is Illuminated
Oct 6
First Quarter
Oct 13
Full
Oct 21
Last Quarter
Oct 27
New
Nov 4
First Quarter

Hourly Weather History & Observations

Time (MDT) Temp. Windchill Dew Point Humidity Pressure Visibility Wind Dir Wind Speed Gust Speed Precip Events Conditions
12:53 AM 39.9 °F 34.5 °F 28.0 °F 63% 30.00 in 10.0 mi ESE 8.1 mph - N/A   Clear
1:53 AM 41.0 °F 39.0 °F 28.0 °F 60% 30.00 in 10.0 mi East 3.5 mph - N/A   Clear
2:53 AM 39.0 °F 34.8 °F 32.0 °F 76% 30.01 in 10.0 mi ENE 5.8 mph - N/A   Clear
3:53 AM 37.9 °F 34.4 °F 30.9 °F 76% 30.02 in 10.0 mi East 4.6 mph - N/A   Clear
4:53 AM 35.1 °F 31.0 °F 28.9 °F 78% 30.06 in 10.0 mi ENE 4.6 mph - N/A   Clear
5:53 AM 34.0 °F - 28.9 °F 82% 30.09 in 10.0 mi Calm Calm - N/A   Clear
6:53 AM 34.0 °F - 28.9 °F 82% 30.14 in 10.0 mi Calm Calm - N/A   Clear
7:53 AM 44.1 °F 40.1 °F 35.1 °F 71% 30.15 in 10.0 mi East 6.9 mph - N/A   Clear
8:53 AM 52.0 °F - 37.0 °F 57% 30.18 in 10.0 mi East 8.1 mph - N/A   Clear
9:53 AM 59.0 °F - 39.9 °F 49% 30.22 in 10.0 mi ENE 9.2 mph - N/A   Partly Cloudy
10:53 AM 62.1 °F - 37.9 °F 41% 30.26 in 10.0 mi ENE 12.7 mph - N/A   Overcast
11:53 AM 64.0 °F - 37.9 °F 38% 30.27 in 10.0 mi NE 16.1 mph 27.6 mph N/A   Partly Cloudy
12:53 PM 64.9 °F - 36.0 °F 34% 30.27 in 10.0 mi NE 12.7 mph 21.9 mph N/A   Clear
1:53 PM 64.9 °F - 34.0 °F 32% 30.27 in 10.0 mi NE 12.7 mph 21.9 mph N/A   Clear
2:53 PM 66.0 °F - 33.1 °F 29% 30.27 in 10.0 mi ENE 8.1 mph 17.3 mph N/A   Clear
3:53 PM 66.0 °F - 32.0 °F 28% 30.27 in 10.0 mi NE 6.9 mph - N/A   Clear
4:53 PM 66.0 °F - 30.9 °F 27% 30.26 in 10.0 mi ENE 9.2 mph - N/A   Clear
5:53 PM 63.0 °F - 32.0 °F 31% 30.27 in 10.0 mi NE 5.8 mph - N/A   Clear
6:39 PM 54.0 °F - 28.9 °F 38% 30.30 in 10.0 mi ESE 6.9 mph - N/A   Partly Cloudy
6:53 PM 52.0 °F - 28.9 °F 41% 30.30 in 10.0 mi ESE 8.1 mph - N/A   Clear
7:53 PM 51.1 °F - 30.0 °F 44% 30.30 in 10.0 mi SSE 10.4 mph - N/A   Clear
8:53 PM 50.0 °F - 30.0 °F 46% 30.29 in 10.0 mi SSE 10.4 mph - N/A   Clear
9:53 PM 50.0 °F - 30.0 °F 46% 30.28 in 10.0 mi South 10.4 mph - N/A   Clear
10:53 PM 48.0 °F - 30.0 °F 50% 30.30 in 10.0 mi South 11.5 mph - N/A   Clear
11:53 PM 43.0 °F 37.7 °F 28.9 °F 58% 30.29 in 10.0 mi SW 9.2 mph - N/A   Clear